When you browse on this site, cookies collect data to enhance your experience and personalize the content and advertising you see.
Visit our Privacy Policy to learn more. By continuing to use the site, you agree to this use of cookies and data.
  • In Hungary
  • List of Countries
  • For 7 days
  • Water Temperature
  • Weather Map
  • News
  • Weather Widgets
  • user-avatar
    Login

    Hourly Weather Forquilha

    Today, 12 November, Tuesday

    Time Temperature Precipitation Wind Pressure Humidity
    00:00 +26°C° 0 mm 1 mps 747 mmHg 80%
    01:00 +25°C° 0 mm 1 mps 747 mmHg 82%
    02:00 +25°C° 0 mm 1 mps 747 mmHg 85%
    03:00 +22°C° 0 mm 0 mps 747 mmHg 88%
    04:00 +25°C° 0 mm 1 mps 747 mmHg 86%
    05:00 +25°C° 0 mm 1 mps 748 mmHg 85%
    06:00 +25°C° 0 mm 2 mps 748 mmHg 84%
    07:00 +28°C° 0 mm 2 mps 749 mmHg 71%
    08:00 +30°C° 0 mm 2 mps 749 mmHg 59%
    09:00 +34°C° 0 mm 3 mps 749 mmHg 46%
    10:00 +36°C° 0 mm 3 mps 749 mmHg 39%
    11:00 +38°C° 0 mm 3 mps 748 mmHg 32%
    12:00 +42°C° 0 mm 3 mps 747 mmHg 25%
    13:00 +42°C° 0 mm 3 mps 746 mmHg 23%
    14:00 +43°C° 0 mm 3 mps 746 mmHg 21%
    15:00 +43°C° 0 mm 3 mps 745 mmHg 19%
    16:00 +40°C° 0 mm 3 mps 745 mmHg 25%
    17:00 +38°C° 0 mm 3 mps 745 mmHg 30%
    18:00 +35°C° 0 mm 3 mps 746 mmHg 36%
    19:00 +33°C° 0 mm 3 mps 746 mmHg 47%
    20:00 +30°C° 0 mm 2 mps 747 mmHg 58%
    21:00 +27°C° 0 mm 2 mps 748 mmHg 69%
    22:00 +27°C° 0 mm 2 mps 747 mmHg 72%
    23:00 +26°C° 0 mm 1 mps 747 mmHg 76%

    Tomorrow, 13 November, Wednesday

    Time Temperature Precipitation Wind Pressure Humidity
    00:00 +26°C° 0 mm 1 mps 747 mmHg 79%
    01:00 +26°C° 0 mm 1 mps 747 mmHg 78%
    02:00 +26°C° 0 mm 2 mps 747 mmHg 78%
    03:00 +26°C° 0 mm 2 mps 747 mmHg 77%
    04:00 +26°C° 0 mm 2 mps 748 mmHg 77%
    05:00 +26°C° 0 mm 1 mps 748 mmHg 77%
    06:00 +26°C° 0 mm 1 mps 748 mmHg 77%
    07:00 +28°C° 0 mm 2 mps 749 mmHg 65%
    08:00 +31°C° 0 mm 2 mps 749 mmHg 53%
    09:00 +34°C° 0 mm 3 mps 749 mmHg 40%
    10:00 +36°C° 0 mm 3 mps 749 mmHg 34%
    11:00 +39°C° 0 mm 3 mps 748 mmHg 28%
    12:00 +42°C° 0 mm 3 mps 748 mmHg 22%
    13:00 +42°C° 0 mm 3 mps 747 mmHg 21%
    14:00 +43°C° 0 mm 3 mps 747 mmHg 19%
    15:00 +43°C° 0 mm 3 mps 746 mmHg 18%
    16:00 +39°C° 0 mm 3 mps 746 mmHg 26%
    17:00 +36°C° 0 mm 3 mps 746 mmHg 34%
    18:00 +34°C° 0 mm 4 mps 746 mmHg 43%
    19:00 +31°C° 0 mm 3 mps 747 mmHg 49%
    20:00 +29°C° 0 mm 2 mps 748 mmHg 56%
    21:00 +27°C° 0 mm 2 mps 748 mmHg 63%
    22:00 +27°C° 0 mm 1 mps 748 mmHg 68%
    23:00 +26°C° 0 mm 1 mps 748 mmHg 74%

    Day after tomorrow, 14 November, Thursday

    Time Temperature Precipitation Wind Pressure Humidity
    00:00 +25°C° 0 mm 1 mps 748 mmHg 79%
    01:00 +25°C° 0 mm 1 mps 748 mmHg 81%
    02:00 +25°C° 0 mm 1 mps 748 mmHg 82%
    03:00 +23°C° 0 mm 0 mps 748 mmHg 83%
    04:00 +26°C° 0 mm 1 mps 748 mmHg 80%
    05:00 +26°C° 0 mm 1 mps 748 mmHg 77%
    06:00 +27°C° 0 mm 1 mps 748 mmHg 74%
    07:00 +28°C° 0 mm 2 mps 749 mmHg 67%
    08:00 +30°C° 0 mm 2 mps 749 mmHg 59%
    09:00 +31°C° 0 mm 3 mps 749 mmHg 52%
    10:00 +35°C° 0 mm 3 mps 749 mmHg 43%
    11:00 +37°C° 0 mm 3 mps 748 mmHg 35%
    12:00 +40°C° 0 mm 3 mps 748 mmHg 27%
    13:00 +40°C° 0 mm 3 mps 747 mmHg 26%
    14:00 +42°C° 0 mm 3 mps 747 mmHg 24%
    15:00 +42°C° 0 mm 3 mps 746 mmHg 23%
    16:00 +38°C° 0 mm 3 mps 746 mmHg 30%
    17:00 +36°C° 0 mm 4 mps 746 mmHg 37%
    18:00 +34°C° 0 mm 4 mps 747 mmHg 43%
    19:00 +31°C° 0 mm 3 mps 747 mmHg 50%
    20:00 +29°C° 0 mm 3 mps 748 mmHg 57%
    21:00 +28°C° 0 mm 2 mps 748 mmHg 63%
    22:00 +27°C° 0 mm 2 mps 748 mmHg 69%
    23:00 +26°C° 0 mm 1 mps 748 mmHg 76%

    15 November, Friday

    Time Temperature Precipitation Wind Pressure Humidity
    00:00 +25°C° 0 mm 1 mps 748 mmHg 82%
    01:00 +25°C° 0 mm 1 mps 747 mmHg 82%
    02:00 +26°C° 0 mm 1 mps 747 mmHg 82%
    03:00 +26°C° 0 mm 1 mps 747 mmHg 81%
    04:00 +26°C° 0 mm 1 mps 747 mmHg 80%
    05:00 +26°C° 0 mm 1 mps 747 mmHg 79%
    06:00 +26°C° 0 mm 1 mps 748 mmHg 78%
    07:00 +28°C° 0 mm 2 mps 748 mmHg 68%
    08:00 +30°C° 0 mm 2 mps 748 mmHg 58%
    09:00 +32°C° 0 mm 2 mps 749 mmHg 49%
    10:00 +36°C° 0 mm 2 mps 748 mmHg 40%
    11:00 +38°C° 0 mm 2 mps 748 mmHg 32%
    12:00 +41°C° 0 mm 2 mps 747 mmHg 24%
    13:00 +42°C° 0 mm 2 mps 746 mmHg 22%
    14:00 +42°C° 0 mm 2 mps 745 mmHg 19%
    15:00 +43°C° 0 mm 1 mps 745 mmHg 17%
    16:00 +40°C° 0 mm 2 mps 745 mmHg 27%
    17:00 +37°C° 0 mm 3 mps 745 mmHg 37%
    18:00 +33°C° 0 mm 4 mps 745 mmHg 46%
    19:00 +31°C° 0 mm 3 mps 746 mmHg 54%
    20:00 +29°C° 0 mm 2 mps 746 mmHg 62%
    21:00 +27°C° 0 mm 1 mps 747 mmHg 70%
    22:00 +27°C° 0 mm 1 mps 747 mmHg 73%
    23:00 +26°C° 0 mm 1 mps 746 mmHg 76%

    16 November, Saturday

    Time Temperature Precipitation Wind Pressure Humidity
    00:00 +26°C° 0 mm 1 mps 746 mmHg 80%
    01:00 +25°C° 0 mm 1 mps 746 mmHg 83%
    02:00 +23°C° 0 mm 0 mps 746 mmHg 86%
    03:00 +22°C° 0 mm 0 mps 745 mmHg 89%
    04:00 +23°C° 0 mm 0 mps 746 mmHg 85%
    05:00 +24°C° 0 mm 0 mps 746 mmHg 81%
    06:00 +26°C° 0 mm 1 mps 747 mmHg 77%
    07:00 +28°C° 0 mm 1 mps 748 mmHg 70%
    08:00 +29°C° 0 mm 2 mps 748 mmHg 64%
    09:00 +30°C° 0 mm 2 mps 748 mmHg 58%
    10:00 +34°C° 0 mm 2 mps 748 mmHg 50%
    11:00 +36°C° 0 mm 2 mps 747 mmHg 42%
    12:00 +38°C° 0 mm 2 mps 747 mmHg 34%
    13:00 +39°C° 0 mm 2 mps 746 mmHg 31%
    14:00 +40°C° 0 mm 2 mps 745 mmHg 28%
    15:00 +41°C° 0 mm 2 mps 744 mmHg 25%
    16:00 +38°C° 0 mm 2 mps 745 mmHg 32%
    17:00 +36°C° 0 mm 3 mps 745 mmHg 39%
    18:00 +34°C° 0 mm 4 mps 745 mmHg 45%
    19:00 +31°C° 0 mm 3 mps 745 mmHg 53%
    20:00 +29°C° 0 mm 3 mps 746 mmHg 60%
    21:00 +27°C° 0 mm 2 mps 747 mmHg 68%
    22:00 +27°C° 0 mm 1 mps 746 mmHg 73%
    23:00 +26°C° 0 mm 1 mps 746 mmHg 78%

    17 November, Sunday

    Time Temperature Precipitation Wind Pressure Humidity
    00:00 +25°C° 0 mm 1 mps 746 mmHg 83%
    01:00 +25°C° 0 mm 1 mps 746 mmHg 86%
    02:00 +22°C° 0 mm 0 mps 746 mmHg 89%
    03:00 +22°C° 0 mm 0 mps 745 mmHg 93%
    04:00 +22°C° 0 mm 0 mps 746 mmHg 91%
    05:00 +25°C° 0 mm 1 mps 747 mmHg 89%
    06:00 +25°C° 0 mm 1 mps 747 mmHg 87%
    07:00 +28°C° 0 mm 1 mps 748 mmHg 74%
    08:00 +30°C° 0 mm 2 mps 748 mmHg 61%
    09:00 +34°C° 0 mm 2 mps 748 mmHg 48%
    10:00 +36°C° 0 mm 2 mps 748 mmHg 40%
    11:00 +39°C° 0 mm 2 mps 747 mmHg 33%
    12:00 +42°C° 0 mm 3 mps 747 mmHg 26%
    13:00 +42°C° 0 mm 3 mps 746 mmHg 25%
    14:00 +42°C° 0 mm 3 mps 745 mmHg 24%
    15:00 +42°C° 0 mm 3 mps 745 mmHg 24%
    16:00 +40°C° 0 mm 4 mps 745 mmHg 32%
    17:00 +36°C° 0 mm 4 mps 745 mmHg 40%
    18:00 +33°C° 0 mm 5 mps 746 mmHg 49%
    19:00 +30°C° 0 mm 4 mps 746 mmHg 56%
    20:00 +29°C° 0 mm 3 mps 747 mmHg 64%
    21:00 +27°C° 0 mm 2 mps 748 mmHg 71%
    22:00 +26°C° 0 mm 1 mps 748 mmHg 75%
    23:00 +26°C° 0 mm 1 mps 747 mmHg 80%
    Show more